Weather History for KLNC - January, 2014

Change the Weather History Date:

Saturday, January 11, 2014

  Actual Average (KRBD) Record (KRBD)
Temperature  
Mean Temperature 52 °F -  
Max Temperature 66 °F 54 °F 73 °F (2000)
Min Temperature 37 °F 36 °F 23 °F (1997)
Degree Days  
Heating Degree Days 14    
Growing Degree Days 2 (Base 50)    
Moisture  
Dew Point 34 °F    
Average Humidity 60    
Maximum Humidity 94    
Minimum Humidity 24    
Precipitation  
Precipitation 0.00 in - - ()
Sea Level Pressure  
Sea Level Pressure 30.04 in    
Wind  
Wind Speed 4 mph (WNW)    
Max Wind Speed 15 mph    
Max Gust Speed 18 mph    
Visibility 10 miles    
Events      
Averages and records for this station are not official NWS values.
T = Trace of Precipitation, MM = Missing Value Source: NWS Daily Summary

Daily Weather History Graph

Daily Weather History Graph

Search for Another Location

Airport or City:

Trip Planner

Search our weather history database for the weather conditions in past years. The results will help you decide how hot, cold, wet, or windy it might be!

Date:

Astronomy

Jan. 11, 2014 Rise Set
Actual Time 7:29 AM CST 5:40 PM CST
Civil Twilight 7:02 AM CST 6:07 PM CST
Nautical Twilight 6:32 AM CST 6:37 PM CST
Astronomical Twilight 6:02 AM CST 7:07 PM CST
Moon 2:23 PM CST (1/11) 3:38 AM CST (1/11)
Length of Visible Light 11h 04m
Length of Day
10h 10m
Waxing Gibbous, 83% of the Moon is Illuminated
Jan 11
Waxing Gibbous
Jan 15
Full
Jan 23
Last Quarter
Jan 30
New
Feb 6
First Quarter

Hourly Weather History & Observations

Time (CST) Temp. Windchill Dew Point Humidity Pressure Visibility Wind Dir Wind Speed Gust Speed Precip Events Conditions
12:15 AM 43.2 °F - 41.2 °F 93% 29.85 in 10.0 mi Calm Calm - N/A   Clear
12:35 AM 43.0 °F - 41.0 °F 93% 29.85 in 10.0 mi Calm Calm - N/A   Clear
12:55 AM 43.0 °F 41.3 °F 41.4 °F 94% 29.87 in 10.0 mi WNW 3.5 mph - N/A   Scattered Clouds
1:15 AM 45.1 °F 43.7 °F 41.9 °F 88% 29.86 in 10.0 mi NNW 3.5 mph - N/A   Scattered Clouds
1:35 AM 44.8 °F - 41.7 °F 89% 29.86 in 10.0 mi Calm Calm - N/A   Scattered Clouds
1:55 AM 44.4 °F - 41.0 °F 88% 29.87 in 10.0 mi Calm Calm - N/A   Clear
2:15 AM 42.8 °F - 41.0 °F 93% 29.87 in 10.0 mi Calm Calm - N/A   Clear
2:35 AM 40.8 °F - 39.2 °F 94% 29.89 in 10.0 mi Calm Calm - N/A   Clear
2:55 AM 41.9 °F - 40.3 °F 94% 29.90 in 10.0 mi Calm Calm - N/A   Clear
3:15 AM 41.7 °F - 39.4 °F 91% 29.92 in 10.0 mi Calm Calm - N/A   Clear
3:35 AM 41.5 °F 39.6 °F 38.7 °F 89% 29.92 in 10.0 mi West 3.5 mph - N/A   Clear
3:55 AM 41.0 °F - 39.0 °F 93% 29.93 in 10.0 mi Calm Calm - N/A   Clear
4:15 AM 40.8 °F 37.8 °F 37.9 °F 89% 29.94 in 10.0 mi WNW 4.6 mph - N/A   Clear
4:35 AM 41.2 °F 36.6 °F 37.4 °F 86% 29.96 in 10.0 mi WNW 6.9 mph - N/A   Clear
4:55 AM 43.3 °F 39.9 °F 36.7 °F 77% 29.97 in 10.0 mi West 5.8 mph - N/A   Clear
5:15 AM 42.4 °F 39.6 °F 36.1 °F 78% 29.97 in 10.0 mi West 4.6 mph - N/A   Clear
5:35 AM 41.2 °F 37.3 °F 36.0 °F 82% 29.98 in 10.0 mi West 5.8 mph - N/A   Clear
5:55 AM 40.1 °F 36.9 °F 35.6 °F 84% 29.98 in 10.0 mi West 4.6 mph - N/A   Clear
6:15 AM 40.6 °F 37.5 °F 35.4 °F 82% 30.00 in 10.0 mi West 4.6 mph - N/A   Clear
6:35 AM 40.5 °F 36.5 °F 35.6 °F 83% 30.01 in 10.0 mi West 5.8 mph - N/A   Clear
6:55 AM 41.0 °F 38.0 °F 34.2 °F 77% 30.02 in 10.0 mi WNW 4.6 mph - N/A   Clear
7:15 AM 42.3 °F 38.6 °F 33.3 °F 70% 30.02 in 10.0 mi West 5.8 mph - N/A   Clear
7:35 AM 41.4 °F 37.6 °F 33.1 °F 72% 30.04 in 10.0 mi WNW 5.8 mph - N/A   Clear
7:55 AM 41.0 °F 37.1 °F 33.6 °F 75% 30.05 in 10.0 mi WNW 5.8 mph - N/A   Clear
8:15 AM 41.9 °F 40.0 °F 34.5 °F 75% 30.06 in 10.0 mi West 3.5 mph - N/A   Clear
8:35 AM 43.0 °F - 36.5 °F 78% 30.07 in 10.0 mi Calm Calm - N/A   Clear
8:55 AM 45.0 °F 43.5 °F 35.8 °F 70% 30.09 in 10.0 mi West 3.5 mph - N/A   Clear
9:15 AM 47.3 °F - 36.7 °F 67% 30.10 in 10.0 mi West 5.8 mph - N/A   Clear
9:35 AM 49.5 °F - 36.1 °F 60% 30.11 in 10.0 mi West 5.8 mph - N/A   Clear
9:55 AM 52.0 °F - 36.0 °F 54% 30.12 in 10.0 mi West 6.9 mph - N/A   Clear
10:15 AM 54.3 °F - 34.9 °F 48% 30.13 in 10.0 mi West 6.9 mph - N/A   Clear
10:35 AM 55.4 °F - 35.2 °F 47% 30.13 in 10.0 mi West 6.9 mph - N/A   Clear
10:55 AM 57.2 °F - 32.7 °F 40% 30.13 in 10.0 mi WNW 9.2 mph - N/A   Clear
11:15 AM 58.3 °F - 32.5 °F 38% 30.13 in 10.0 mi WNW 10.4 mph - N/A   Clear
11:35 AM 59.4 °F - 32.2 °F 36% 30.12 in 10.0 mi WNW 10.4 mph - N/A   Clear
11:55 AM 60.8 °F - 33.3 °F 36% 30.11 in 10.0 mi WNW 12.7 mph - N/A   Clear
12:15 PM 61.3 °F - 32.4 °F 34% 30.10 in 10.0 mi WNW 11.5 mph - N/A   Clear
12:35 PM 62.1 °F - 30.7 °F 31% 30.10 in 10.0 mi West 12.7 mph - N/A   Clear
12:55 PM 63.1 °F - 31.5 °F 30% 30.09 in 10.0 mi WNW 10.4 mph - N/A   Clear
1:15 PM 63.5 °F - 29.5 °F 28% 30.08 in 10.0 mi WNW 11.5 mph - N/A   Clear
1:35 PM 64.4 °F - 29.8 °F 27% 30.07 in 10.0 mi WNW 9.2 mph - N/A   Clear
1:55 PM 65.3 °F - 30.7 °F 27% 30.07 in 10.0 mi WNW 6.9 mph - N/A   Clear
2:15 PM 66.0 °F - 30.0 °F 26% 30.06 in 10.0 mi West 10.4 mph - N/A   Clear
2:35 PM 66.6 °F - 29.3 °F 25% 30.06 in 10.0 mi NW 13.8 mph 18.4 mph N/A   Clear
2:55 PM 66.4 °F - 28.8 °F 24% 30.06 in 10.0 mi WNW 15.0 mph 18.4 mph N/A   Clear
3:15 PM 66.9 °F - 28.9 °F 24% 30.06 in 10.0 mi NW 9.2 mph - N/A   Clear
3:35 PM 66.4 °F - 28.6 °F 24% 30.06 in 10.0 mi NW 12.7 mph 18.4 mph N/A   Clear
3:55 PM 66.4 °F - 28.9 °F 25% 30.07 in 10.0 mi WNW 10.4 mph - N/A   Clear
4:15 PM 66.2 °F - 31.5 °F 27% 30.06 in 10.0 mi WNW 8.1 mph - N/A   Clear
4:35 PM 65.7 °F - 30.2 °F 27% 30.07 in 10.0 mi NW 10.4 mph - N/A   Clear
4:55 PM 63.9 °F - 31.6 °F 30% 30.07 in 10.0 mi NW 8.1 mph - N/A   Clear
5:15 PM 62.8 °F - 31.5 °F 31% 30.07 in 10.0 mi WNW 4.6 mph - N/A   Clear
5:35 PM 62.1 °F - 28.0 °F 28% 30.07 in 10.0 mi WNW 4.6 mph - N/A   Clear
5:55 PM 62.1 °F - 26.8 °F 26% 30.07 in 10.0 mi Calm Calm - N/A   Clear
6:15 PM 56.3 °F - 31.6 °F 39% 30.07 in 10.0 mi Calm Calm - N/A   Clear
6:35 PM 53.6 °F - 32.7 °F 45% 30.07 in 10.0 mi Calm Calm - N/A   Clear
6:55 PM 51.8 °F - 33.4 °F 50% 30.08 in 10.0 mi Calm Calm - N/A   Clear
7:15 PM 50.4 °F - 32.0 °F 49% 30.08 in 10.0 mi WSW 4.6 mph - N/A   Clear
7:35 PM 48.4 °F - 32.7 °F 55% 30.09 in 10.0 mi West 3.5 mph - N/A   Clear
7:55 PM 48.7 °F - 32.0 °F 52% 30.09 in 10.0 mi Calm Calm - N/A   Clear
8:15 PM 50.4 °F - 31.8 °F 49% 30.09 in 10.0 mi West 3.5 mph - N/A   Clear
8:35 PM 48.2 °F - 32.0 °F 54% 30.10 in 10.0 mi West 3.5 mph - N/A   Clear
8:55 PM 42.8 °F - 33.6 °F 70% 30.10 in 10.0 mi Calm Calm - N/A   Clear
9:15 PM 44.2 °F - 33.8 °F 67% 30.09 in 10.0 mi Calm Calm - N/A   Clear
9:35 PM 44.6 °F - 32.5 °F 63% 30.09 in 10.0 mi Calm Calm - N/A   Clear
9:55 PM 42.1 °F - 33.1 °F 70% 30.09 in 10.0 mi Calm Calm - N/A   Clear
10:15 PM 41.9 °F - 34.5 °F 75% 30.10 in 10.0 mi Calm Calm - N/A   Clear
10:35 PM 39.4 °F - 32.9 °F 78% 30.09 in 10.0 mi Calm Calm - N/A   Clear
10:55 PM 41.4 °F - 33.4 °F 73% 30.09 in 10.0 mi Calm Calm - N/A   Clear
11:15 PM 40.6 °F - 33.1 °F 74% 30.08 in 10.0 mi Calm Calm - N/A   Clear
11:35 PM 37.8 °F - 33.8 °F 86% 30.08 in 10.0 mi Calm Calm - N/A   Clear
11:55 PM 38.1 °F - 32.2 °F 79% 30.08 in 10.0 mi Calm Calm - N/A   Clear